Showing default

SIT-2086, 61764

Orbit data source: Space-Track

SIT-2086, 61764 is a Commonwealth of Independent States-origin payload satellite in SSO that was launched on Mon, 04 Nov 2024 UTC via a SOYUZ-2-1B launch vehicle from the Vostochny Cosmodrome (VOSTO). Payload-class satellites include a variety of spacecraft equipped with specific instruments for various scientific and technological missions. These include communications satellites like Starlink; space stations such as the ISS; scientific satellites like the Hubble; Earth observation satellites from companies like Planet Labs, Umbra, and HawkEye 360; GPS; miniature CubeSats for education and research; and military/defense satellites.

Loading next visibility...
Identifier
61764, 2024-199AF
Orbit
SSO
Country
Flag of CISCIS
Related business
Manufacturer
Sputniks
Mission
Operational Amateur Technology
Bus & Motor
CUBESAT 3U, Unknown motor
Mass
3 kg wet, 3 kg dry
Launch date (UTC)
2024-11-04 (2 years ago)
Launch vehicle
SOYUZ-2-1B
Launch site
Vostochny Cosmodrome (VOSTO)
Object type
Payload
Rocket body
Debris
Shape & HBR
Box, 0.2 m
Radar Cross Section
0.035 m², Medium (>0.1 m² and < 1m²)

Expand to show TLE details & history
Last TLE update: 5 hours ago

TLE from 5 hours ago
0 SIT-2086
1 61764U 24199AF  26264.56576947  .00037288  00000-0  45874-3 0  9997
2 61764  97.2747 142.8619 0003013 255.5350 104.5573 15.60162123149427
Epoch: 2026-09-21T13:34Z
TLE epoch observation values (Epoch: 2026-09-21T13:34:42.482Z)
Latitude
-0°
Longitude
-61.25887°
Altitude
390.85 km
Speed
7.675 km/s
True Right ascension
09h 31m 26s
True Declination
0° 00' 00"
Sunlit
Object was in daylight at epoch
Visualization orbit readout
Latitude
Unknown
Longitude
Unknown
Altitude
Unknown
Speed
Unknown
Apparent Right ascension
Unknown
Apparent Declination
Unknown
Sunlit
N/A
Visualization observer readout
Local Sidereal Time
12:01:08
Azimuth
Unknown
Elevation
Unknown
Doppler factor
Unknown
Orbital elements
Apogee altitude
386.133 km
Perigee altitude
382.058 km
Semi-major axis
6,762.232 km
Eccentricity
0.0003
Inclination
97.2747°
RAAN
142.8619°
Arg. of periapsis
255.535°
True anomaly
104.59071°
Mean anomaly
104.5573°
Eccentric anomaly
104.57401°
Mean motion
3.90309 °/min
Orbital period
92.23 mins
BSTAR
0.00045874
Loading maneuver chart data...
Computing Atmospheric mass density...
Loading historical data...
Loading historical data...
Loading historical data...
Loading historical data...
Loading historical data...
Loading historical data...
Loading historical data...

Documentation

Showing up to 5 results
|